Location: Banios
(43.0451°N, 0.2335°E)
Time: 13:18:01
(UTC+00:00)

Cosmos 44 Rocket - Pass Details

Date: 25 January 2021
Orbit: 637 x 753 km, 65.1° (Epoch: 25 February)

Event Time Altitude Azimuth Distance (km) Brightness Sun altitude
Exits shadow 05:14:51 48° 228° (SW) 982 3.7 -23.0°
Drops below altitude 10° 05:19:25 10° 170° (S) 2,255 6.1 -22.1°
Sets 05:21:50 0° 164° (SSE) 3,165 7.0 -21.7°
